K8RRT Weather Reports


time (UTC)temp
C
wind
direction
speed
KPH
gust
KPH
rain 1hr
cm
rain 24hr
cm
rain mn
cm
humidity
%
barometer
mb
20260906122307 21 36 1.6 1.6 0.00 0.00 0.00 99 1010.7
20260906121804 21 26 3.2 3.2 0.00 0.00 0.00 99 1010.7
20260906121259 21 37 0.0 0.0 0.00 0.00 0.00 99 1010.7
20260906120754 21 60 3.2 4.8 0.00 0.00 0.00 99 1010.4
20260906120246 21 21 3.2 4.8 0.00 0.00 0.00 99 1010.2
20260906115741 21 45 3.2 3.2 0.00 0.00 0.00 99 1010.2
20260906115236 21 48 1.6 1.6 0.00 0.00 0.00 99 1010.2
20260906114735 21 42 0.0 1.6 0.00 0.00 0.00 99 1010.2
20260906114231 21 80 4.8 4.8 0.00 0.00 0.00 99 1010.2
20260906113726 21 75 4.8 8.0 0.00 0.00 0.00 99 1010.2
20260906113224 21 17 1.6 1.6 0.00 0.00 0.00 99 1010.1
20260906112719 21 49 3.2 3.2 0.00 0.00 0.00 99 1010.0
20260906112216 21 72 1.6 1.6 0.00 0.00 0.00 99 1009.8
20260906111715 21 44 0.0 0.0 0.00 0.00 0.00 99 1009.7
20260906111210 21 15 3.2 4.8 0.00 0.00 0.00 99 1009.6
20260906110704 21 36 1.6 1.6 0.00 0.00 0.00 99 1009.3
20260906110200 21 13 3.2 3.2 0.00 0.00 0.00 99 1009.3
20260906105653 21 16 3.2 3.2 0.00 0.00 0.00 99 1009.3
20260906105150 21 15 4.8 4.8 0.00 0.00 0.00 99 1009.2
20260906104649 21 38 3.2 3.2 0.00 0.00 0.00 99 1009.3
20260906104143 21 74 3.2 3.2 0.00 0.00 0.00 99 1009.3
20260906103641 21 76 3.2 3.2 0.00 0.00 0.00 99 1009.1
20260906103137 21 80 6.4 8.0 0.00 0.00 0.00 99 1009.0
20260906102631 21 33 8.0 11.3 0.00 0.00 0.00 99 1009.1
20260906102125 21 96 3.2 4.8 0.00 0.00 0.00 99 1009.0
20260906101620 21 79 1.6 1.6 0.00 0.00 0.00 99 1008.9
20260906101115 21 99 4.8 4.8 0.00 0.00 0.00 99 1008.8
20260906100611 21 26 1.6 1.6 0.00 0.00 0.00 99 1008.7
20260906100111 21 76 8.0 9.7 0.00 0.00 0.00 99 1008.6
20260906095610 21 33 1.6 3.2 0.00 0.00 0.00 99 1008.8
20260906095106 21 14 6.4 11.3 0.00 0.00 0.00 99 1008.7
20260906094605 21 17 3.2 3.2 0.00 0.00 0.00 99 1008.7
20260906094101 21 55 4.8 4.8 0.00 0.00 0.00 99 1008.9
20260906093557 21 63 0.0 1.6 0.00 0.00 0.00 99 1008.6
20260906093051 21 76 3.2 3.2 0.00 0.00 0.00 99 1008.5
20260906092547 21 118 0.0 0.0 0.00 0.00 0.00 99 1008.6
20260906092042 21 71 1.6 1.6 0.00 0.00 0.00 99 1008.7
20260906091537 21 23 1.6 1.6 0.00 0.00 0.00 99 1008.7
20260906091033 21 14 0.0 1.6 0.00 0.00 0.00 99 1008.9
20260906090528 21 346 1.6 1.6 0.00 0.00 0.00 99 1008.9
20260906090023 21 9 3.2 3.2 0.00 0.00 0.00 99 1008.9
20260906085522 21 19 4.8 4.8 0.00 0.00 0.00 99 1008.9
20260906085021 21 17 1.6 3.2 0.00 0.00 0.00 99 1008.9
20260906084516 21 9 1.6 1.6 0.00 0.00 0.00 99 1008.8
20260906084015 21 10 3.2 3.2 0.00 0.00 0.00 99 1008.8
20260906083511 21 16 3.2 3.2 0.00 0.00 0.00 99 1008.7
20260906083010 21 48 0.0 1.6 0.00 0.00 0.00 99 1008.8
20260906082505 21 56 1.6 1.6 0.00 0.00 0.00 99 1008.9
20260906082001 21 118 3.2 3.2 0.00 0.00 0.00 99 1008.9
20260906081456 21 45 3.2 3.2 0.00 0.00 0.00 99 1008.9
20260906080952 21 299 0.0 0.0 0.00 0.00 0.00 99 1009.0
20260906080448 21 299 0.0 0.0 0.00 0.00 0.00 99 1008.9
20260906075943 21 299 0.0 0.0 0.00 0.00 0.00 99 1008.9
20260906075438 21 300 0.0 0.0 0.00 0.00 0.00 99 1008.9
20260906074933 21 300 0.0 0.0 0.00 0.00 0.00 99 1008.9
20260906074433 21 272 0.0 1.6 0.00 0.00 0.00 99 1008.9
20260906073932 21 250 1.6 1.6 0.00 0.00 0.00 99 1008.8
20260906073427 21 250 1.6 3.2 0.00 0.00 0.00 99 1008.6
20260906072923 21 268 0.0 1.6 0.00 0.00 0.00 99 1008.6
20260906072418 21 216 1.6 1.6 0.00 0.00 0.00 99 1008.4
20260906071914 21 349 0.0 0.0 0.00 0.00 0.00 99 1008.6
20260906071409 21 351 0.0 0.0 0.00 0.00 0.00 99 1008.2
20260906070905 21 351 0.0 0.0 0.00 0.00 0.00 99 1008.4
20260906070401 21 4 0.0 0.0 0.00 0.00 0.00 99 1008.4
20260906065857 21 46 0.0 0.0 0.00 0.00 0.00 99 1008.1
20260906065350 21 168 0.0 0.0 0.00 0.00 0.00 99 1008.3
20260906064846 21 170 0.0 0.0 0.00 0.00 0.00 99 1008.3
20260906064343 21 168 0.0 0.0 0.00 0.00 0.00 99 1008.5
20260906063837 21 166 0.0 0.0 0.00 0.00 0.00 99 1008.5
20260906063332 21 167 0.0 0.0 0.00 0.00 0.00 99 1008.4
20260906062827 21 168 1.6 1.6 0.00 0.00 0.00 99 1008.7
20260906062326 21 164 0.0 0.0 0.00 0.00 0.00 99 1008.8
20260906061822 22 165 1.6 1.6 0.00 0.00 0.00 99 1008.7
20260906061319 22 164 0.0 0.0 0.00 0.00 0.00 99 1008.7
20260906060813 21 160 0.0 0.0 0.00 0.00 0.00 99 1008.9
20260906060311 22 160 0.0 0.0 0.00 0.00 0.00 99 1009.0
20260906055807 22 154 0.0 0.0 0.00 0.00 0.00 99 1009.0
20260906055306 22 110 1.6 3.2 0.00 0.00 0.00 99 1008.7
20260906054757 22 107 1.6 1.6 0.00 0.00 0.00 99 1008.6
20260906054252 22 80 1.6 1.6 0.00 0.00 0.00 99 1009.0
20260906053749 22 55 1.6 1.6 0.00 0.00 0.00 99 1008.6
20260906053244 22 137 0.0 0.0 0.00 0.00 0.00 99 1008.9
20260906052739 22 137 0.0 0.0 0.00 0.00 0.00 99 1008.7
20260906052235 22 149 0.0 1.6 0.00 0.00 0.00 99 1008.5
20260906051732 22 155 0.0 0.0 0.00 0.00 0.00 99 1008.8
20260906051231 22 156 0.0 0.0 0.00 0.00 0.00 99 1008.8
20260906050727 22 157 0.0 1.6 0.00 0.00 0.00 99 1008.9
20260906050222 22 157 0.0 1.6 0.00 0.00 0.00 99 1008.8
20260906045721 22 157 0.0 0.0 0.00 0.00 0.00 99 1008.8
20260906045216 22 157 1.6 1.6 0.00 0.00 0.00 99 1008.5
20260906044711 22 156 0.0 0.0 0.00 0.00 0.00 99 1008.6
20260906044206 22 60 0.0 1.6 0.00 0.00 0.00 99 1008.3
20260906043703 22 25 3.2 3.2 0.00 0.00 0.00 99 1008.4
20260906043158 22 56 1.6 1.6 0.00 0.00 0.00 99 1008.3
20260906042658 22 143 0.0 1.6 0.00 0.00 0.00 99 1008.2
20260906042157 22 143 0.0 0.0 0.00 0.00 0.00 99 1008.2
20260906041653 22 144 1.6 1.6 0.00 0.00 0.00 99 1008.4
20260906041148 23 142 1.6 3.2 0.00 0.00 0.00 99 1008.5
20260906040643 22 187 0.0 0.0 0.00 0.00 0.00 99 1008.4
20260906040139 23 179 1.6 1.6 0.00 0.00 0.00 99 1008.7
20260906035633 23 100 0.0 1.6 0.00 0.20 0.20 99 1008.4
20260906035129 23 98 0.0 0.0 0.00 0.20 0.20 99 1008.6
20260906034624 23 98 0.0 0.0 0.00 0.20 0.20 99 1008.3
20260906034118 23 98 0.0 0.0 0.00 0.20 0.20 99 1008.4
20260906033614 23 110 1.6 1.6 0.00 0.20 0.20 99 1008.4
20260906033108 23 77 1.6 1.6 0.00 0.20 0.20 99 1008.6
20260906032606 23 52 0.0 0.0 0.00 0.20 0.20 99 1008.6
20260906032100 23 53 0.0 1.6 0.00 0.20 0.20 99 1008.8
20260906031555 23 76 1.6 1.6 0.00 0.20 0.20 99 1008.7
20260906031051 23 127 1.6 1.6 0.00 0.20 0.20 99 1008.7
20260906030550 23 52 0.0 1.6 0.00 0.20 0.20 99 1009.0
20260906030050 23 74 1.6 3.2 0.00 0.20 0.20 99 1008.9
20260906025550 23 99 3.2 3.2 0.00 0.20 0.20 99 1008.9
20260906025048 23 85 4.8 4.8 0.00 0.20 0.20 99 1009.0
20260906024544 23 102 1.6 1.6 0.00 0.20 0.20 99 1009.3
20260906024043 23 94 3.2 3.2 0.00 0.20 0.20 99 1009.1
20260906023540 23 97 1.6 1.6 0.00 0.20 0.20 99 1009.3
20260906023034 23 97 0.0 0.0 0.00 0.20 0.20 99 1009.0
20260906022530 23 110 1.6 3.2 0.00 0.20 0.20 99 1008.9
20260906022025 23 54 0.0 0.0 0.00 0.20 0.20 99 1008.9
20260906021520 23 64 1.6 1.6 0.00 0.20 0.20 99 1008.9
20260906021014 23 211 0.0 0.0 0.00 0.20 0.20 99 1008.8
20260906020514 23 212 0.0 0.0 0.00 0.20 0.20 99 1008.8
20260906020013 23 212 0.0 0.0 0.00 0.20 0.20 99 1008.6
20260906015512 23 211 0.0 0.0 0.00 0.20 0.20 99 1008.7
20260906015007 23 212 0.0 0.0 0.00 0.20 0.20 99 1008.4
20260906014502 23 211 0.0 0.0 0.00 0.20 0.20 99 1008.5
20260906013957 23 211 1.6 1.6 0.00 0.20 0.20 99 1008.7
20260906013453 23 217 0.0 1.6 0.00 0.20 0.20 99 1008.7
20260906012948 23 217 0.0 1.6 0.00 0.20 0.20 99 1008.4
20260906012443 23 215 0.0 0.0 0.00 0.20 0.20 98 1008.4
20260906011942 23 215 0.0 0.0 0.00 0.20 0.20 98 1008.1
20260906011438 23 215 0.0 0.0 0.00 0.20 0.20 98 1008.2
20260906010933 23 216 0.0 0.0 0.00 0.20 0.20 98 1008.0
20260906010428 24 205 1.6 1.6 0.00 0.20 0.20 97 1007.9
20260906005924 24 183 0.0 0.0 0.00 0.20 0.20 97 1008.2
20260906005424 24 182 0.0 0.0 0.00 0.20 0.20 97 1008.0
20260906004922 24 183 0.0 0.0 0.00 0.20 0.20 97 1008.0
20260906004417 24 182 0.0 0.0 0.00 0.20 0.20 96 1007.8
20260906003913 24 182 0.0 0.0 0.00 0.20 0.20 95 1007.9
20260906003408 25 182 0.0 0.0 0.00 0.20 0.20 95 1008.0
20260906002903 25 213 0.0 0.0 0.00 0.20 0.20 95 1008.0
20260906002403 25 194 1.6 1.6 0.00 0.20 0.20 94 1008.0
20260906001858 25 161 0.0 0.0 0.00 0.20 0.20 93 1008.0
20260906001353 25 161 0.0 0.0 0.00 0.20 0.20 93 1008.1
20260906000848 25 161 0.0 0.0 0.00 0.20 0.20 92 1008.2
20260906000348 25 119 1.6 3.2 0.00 0.20 0.20 91 1007.9
20260905235843 25 181 1.6 1.6 0.00 0.20 0.20 90 1008.3
20260905235337 26 181 1.6 1.6 0.00 0.20 0.20 89 1008.2
20260905234833 26 183 0.0 0.0 0.00 0.20 0.20 87 1008.4
20260905234328 26 183 0.0 0.0 0.00 0.20 0.20 86 1008.2
20260905233823 26 212 1.6 1.6 0.00 0.20 0.20 86 1008.3
20260905233318 27 222 3.2 3.2 0.00 0.20 0.20 83 1008.3
20260905232817 27 356 0.0 0.0 0.00 0.20 0.20 79 1008.1
20260905232313 28 356 0.0 0.0 0.00 0.20 0.20 78 1008.3
20260905231809 28 352 1.6 1.6 0.00 0.20 0.20 77 1008.1
20260905231304 28 24 0.0 0.0 0.00 0.20 0.20 77 1008.1
20260905230800 28 32 1.6 1.6 0.00 0.20 0.20 76 1008.3
20260905230258 28 25 0.0 1.6 0.00 0.20 0.20 77 1008.2
20260905225757 28 11 1.6 1.6 0.00 0.20 0.20 76 1008.6
20260905225253 28 22 1.6 3.2 0.00 0.20 0.20 76 1008.4
20260905224752 28 28 0.0 1.6 0.00 0.20 0.20 77 1008.5
20260905224248 28 25 0.0 0.0 0.00 0.20 0.20 77 1008.3
20260905223743 28 20 1.6 1.6 0.00 0.20 0.20 76 1008.3
20260905223240 28 19 4.8 4.8 0.00 0.20 0.20 77 1008.2
20260905222736 28 33 1.6 1.6 0.00 0.20 0.20 77 1008.3
20260905222234 28 10 4.8 8.0 0.00 0.20 0.20 78 1008.0
20260905221731 28 19 1.6 3.2 0.00 0.20 0.20 78 1008.3
20260905221227 28 37 1.6 1.6 0.00 0.20 0.20 78 1008.1
20260905220723 28 344 0.0 1.6 0.00 0.20 0.20 77 1008.3
20260905220219 28 334 4.8 4.8 0.00 0.20 0.20 77 1008.2
20260905215718 28 345 4.8 8.0 0.00 0.20 0.20 77 1008.1
20260905215214 28 356 3.2 4.8 0.00 0.20 0.20 75 1008.2
20260905214710 29 12 4.8 4.8 0.00 0.20 0.20 74 1008.1
20260905214205 29 7 1.6 1.6 0.00 0.20 0.20 75 1008.1
20260905213700 29 13 1.6 3.2 0.00 0.20 0.20 73 1008.1
20260905213156 30 29 3.2 3.2 0.00 0.20 0.20 72 1007.9
20260905212651 29 298 1.6 3.2 0.00 0.20 0.20 72 1007.9
20260905212150 29 13 4.8 4.8 0.00 0.20 0.20 73 1007.9
20260905211645 29 29 3.2 4.8 0.00 0.20 0.20 72 1007.8
20260905211140 30 336 8.0 9.7 0.00 0.20 0.20 72 1008.0
20260905210637 30 311 3.2 4.8 0.00 0.20 0.20 72 1007.8
20260905210137 30 334 4.8 4.8 0.00 0.20 0.20 72 1007.8
20260905205636 30 303 1.6 3.2 0.00 0.20 0.20 72 1007.8
20260905205130 29 27 6.4 9.7 0.00 0.20 0.20 72 1007.7
20260905204630 29 289 3.2 3.2 0.00 0.20 0.20 73 1007.8
20260905204125 30 357 1.6 3.2 0.00 0.20 0.20 74 1008.0
20260905203625 30 42 1.6 3.2 0.00 0.20 0.20 72 1007.7
20260905203120 30 35 3.2 3.2 0.00 0.20 0.20 71 1008.0
20260905202616 29 18 1.6 3.2 0.00 0.20 0.20 71 1007.6
20260905202111 29 359 1.6 3.2 0.00 0.20 0.20 73 1007.9
20260905201607 30 296 6.4 8.0 0.00 0.20 0.20 70 1008.1
20260905201106 28 311 3.2 4.8 0.00 0.20 0.20 72 1008.4
20260905200602 28 3 4.8 4.8 0.00 0.20 0.20 71 1008.4
20260905200056 29 351 6.4 8.0 0.00 0.20 0.20 68 1008.6
20260905195550 30 8 3.2 3.2 0.00 0.20 0.20 64 1008.5
20260905195046 29 262 6.4 8.0 0.00 0.20 0.20 65 1008.4
20260905194545 29 313 4.8 8.0 0.00 0.20 0.20 69 1008.7
20260905194044 29 309 4.8 4.8 0.00 0.20 0.20 70 1008.5
20260905193540 29 290 3.2 3.2 0.00 0.20 0.20 71 1008.5
20260905193035 28 323 4.8 4.8 0.00 0.20 0.20 71 1008.6
20260905192530 28 335 1.6 3.2 0.00 0.20 0.20 72 1008.6
20260905192027 28 294 4.8 4.8 0.00 0.20 0.20 72 1008.8
20260905191524 29 339 4.8 8.0 0.00 0.20 0.20 70 1008.8
20260905191023 29 307 1.6 1.6 0.00 0.20 0.20 71 1008.8
20260905190521 30 336 1.6 1.6 0.00 0.20 0.20 72 1008.7
20260905190016 29 307 1.6 1.6 0.00 0.20 0.20 71 1009.0
20260905185516 29 350 1.6 1.6 0.00 0.20 0.20 72 1009.1
20260905185015 29 10 1.6 1.6 0.00 0.20 0.20 72 1009.2
20260905184510 29 5 0.0 1.6 0.00 0.20 0.20 71 1009.2
20260905184009 29 20 3.2 3.2 0.00 0.20 0.20 73 1009.3
20260905183508 28 50 1.6 1.6 0.00 0.20 0.20 73 1009.3
20260905183009 28 15 3.2 3.2 0.00 0.20 0.20 76 1009.3
20260905182503 28 48 4.8 4.8 0.00 0.20 0.20 75 1009.6
20260905181957 27 12 0.0 0.0 0.00 0.20 0.20 76 1009.7
20260905181453 28 142 3.2 8.0 0.00 0.20 0.20 79 1009.6
20260905180951 28 16 4.8 4.8 0.00 0.20 0.20 75 1009.6
20260905180446 27 303 1.6 3.2 0.00 0.20 0.20 76 1009.4
20260905175942 28 9 6.4 8.0 0.00 0.20 0.20 74 1009.5
20260905175441 27 224 3.2 3.2 0.00 0.20 0.20 75 1009.7
20260905174937 27 71 1.6 3.2 0.00 0.20 0.20 79 1009.7
20260905174432 27 77 4.8 4.8 0.00 0.20 0.20 77 1009.8
20260905173927 27 7 4.8 4.8 0.00 0.20 0.20 76 1010.0
20260905173424 27 45 1.6 3.2 0.00 0.20 0.20 79 1010.0
20260905172919 27 13 4.8 4.8 0.00 0.20 0.20 80 1009.8
20260905172417 26 85 3.2 3.2 0.00 0.20 0.20 79 1010.0
20260905171913 27 76 1.6 4.8 0.00 0.20 0.20 82 1010.2
20260905171410 27 22 3.2 3.2 0.00 0.20 0.20 80 1010.1
20260905170905 27 159 1.6 3.2 0.00 0.20 0.20 78 1010.3
20260905170402 26 50 6.4 8.0 0.00 0.20 0.20 83 1010.4
20260905165901 27 7 8.0 9.7 0.00 0.20 0.20 80 1010.2
20260905165356 26 39 4.8 8.0 0.00 0.20 0.20 83 1010.2
20260905164850 26 40 3.2 4.8 0.00 0.20 0.20 80 1010.6
20260905164345 26 35 3.2 3.2 0.00 0.20 0.20 82 1010.5
20260905163840 26 62 0.0 1.6 0.00 0.20 0.20 85 1010.2
20260905163337 25 125 6.4 8.0 0.00 0.20 0.20 85 1010.5
20260905162832 25 138 3.2 3.2 0.00 0.20 0.20 85 1010.5
20260905162327 25 93 3.2 4.8 0.00 0.20 0.20 86 1010.5
20260905161821 25 127 6.4 8.0 0.00 0.20 0.20 87 1010.5
20260905161321 25 129 4.8 4.8 0.00 0.20 0.20 87 1010.9
20260905160819 25 108 4.8 4.8 0.00 0.20 0.20 89 1010.5
20260905160314 25 117 4.8 4.8 0.00 0.20 0.20 89 1010.4
20260905155808 25 55 0.0 0.0 0.00 0.20 0.20 89 1010.5
20260905155307 25 116 4.8 8.0 0.00 0.20 0.20 90 1010.0
20260905154801 25 22 1.6 1.6 0.00 0.20 0.20 91 1009.8
20260905154257 25 267 6.4 8.0 0.00 0.20 0.20 91 1009.6
20260905153752 25 197 3.2 3.2 0.00 0.20 0.20 92 1009.6
20260905153248 24 243 4.8 8.0 0.00 0.20 0.20 94 1009.8
20260905152742 23 269 3.2 4.8 0.00 0.20 0.20 95 1010.6
20260905152237 23 12 6.4 8.0 0.00 0.20 0.20 95 1010.4
20260905151736 23 164 4.8 8.0 0.00 0.20 0.20 95 1009.3
20260905151233 23 252 4.8 4.8 0.00 0.20 0.20 95 1010.6
20260905150732 23 218 3.2 3.2 0.00 0.20 0.20 95 1010.9
20260905150232 23 251 1.6 1.6 0.00 0.20 0.20 95 1010.7
20260905145729 23 254 4.8 4.8 0.00 0.20 0.20 95 1010.7
20260905145224 23 262 6.4 8.0 0.00 0.20 0.20 94 1010.3
20260905144723 23 254 3.2 3.2 0.00 0.20 0.20 94 1010.1
20260905144218 23 210 1.6 1.6 0.00 0.20 0.20 94 1009.7
20260905143717 23 247 1.6 1.6 0.00 0.20 0.20 95 1010.1
20260905143212 23 234 3.2 3.2 0.00 0.20 0.20 95 1010.3
20260905142710 23 272 0.0 0.0 0.00 0.20 0.20 95 1010.8
20260905142205 23 268 1.6 3.2 0.00 0.20 0.20 96 1010.7
20260905141700 23 163 3.2 3.2 0.00 0.20 0.20 96 1010.3
20260905141156 23 78 0.0 1.6 0.00 0.20 0.20 96 1010.6
20260905140651 23 239 1.6 1.6 0.00 0.20 0.20 96 1010.7
20260905140145 23 324 0.0 1.6 0.00 0.20 0.20 96 1011.1
20260905135640 23 156 4.8 4.8 0.00 0.20 0.20 95 1011.2
20260905135136 23 167 3.2 4.8 0.00 0.20 0.20 95 1011.3
20260905134630 23 146 1.6 1.6 0.00 0.20 0.20 96 1011.2
20260905134129 22 151 4.8 4.8 0.00 0.20 0.20 97 1011.5
20260905133625 23 17 1.6 3.2 0.00 0.20 0.20 98 1011.7
20260905133125 23 116 3.2 3.2 0.00 0.20 0.20 99 1011.3
20260905132624 22 46 0.0 1.6 0.00 0.20 0.20 99 1011.7
20260905132118 22 359 0.0 1.6 0.00 0.20 0.20 99 1011.7
20260905131609 22 327 0.0 0.0 0.00 0.20 0.20 99 1011.6
20260905131104 22 318 0.0 1.6 0.00 0.20 0.20 98 1011.5
20260905130604 22 8 0.0 0.0 1.19 0.20 0.20 98 1011.5
20260905130058 22 48 1.6 1.6 1.19 0.20 0.20 97 1011.7
20260905125558 23 340 8.0 11.3 0.00 0.00 0.00 96 1012.1
20260905125053 23 5 8.0 9.7 0.00 0.00 0.00 96 1011.7
20260905124550 23 339 1.6 3.2 0.00 0.00 0.00 96 1011.4
20260905124045 23 24 4.8 8.0 0.00 0.00 0.00 96 1011.3
20260905123540 23 23 3.2 3.2 0.00 0.00 0.00 97 1011.3
20260905123038 23 13 4.8 4.8 0.00 0.00 0.00 99 1011.4